Location: Kuppenheim
(48.8299°N, 8.2568°E)
Time: 11:30:44
(UTC+00:00)

NOSS 3-2 (A) - Pass Details

Date: 20 June 2021
Orbit: 774 x 1433 km, 63.4° (Epoch: 17 July)

Event Time Altitude Azimuth Distance (km) Brightness Sun altitude
Rises 02:21:28 0° 317° (NW) 3,905 6.8 -8.1°
Reaches altitude 10° 02:23:59 10° 318° (NW) 3,034 6.2 -7.8°
Maximum altitude 02:31:25 87° 50° (NE) 1,279 4.2 -7.0°
Drops below altitude 10° 02:39:56 10° 139° (SE) 3,451 6.3 -6.1°
Sets 02:42:57 0° 140° (SE) 4,468 6.9 -5.7°
